Regional Weather Roundup
Issued by NWS Grand Forks, ND

Home | Current Version | Previous Version | Text Only | Print | Product List | Glossary On
Versions: 1 2 3 4 5 6 7 8 9 10 11 12 13 14 15 16 17 18 19 20 21 22 23 24 25 26 27 28 29 30 31 32 33 34 35 36 37 38 39 40 41 42 43 44 45 46 47 48 49 50
000
ASUS43 KFGF 291210
RWRFGF
PRAIRIE TO PINES  WEATHER ROUNDUP
NATIONAL WEATHER SERVICE EASTERN NORTH DAKOTA/GRAND FORKS ND
700 AM CDT FRI JUL 29 2016

 **SATELLITE DATA USED TO AUGMENT SKY COVER AT AUTOMATED STATIONS**
 *****  WEATHER ACROSS EASTERN NORTH DAKOTA  *****

CITY           SKY/WX    TMP DP  RH WIND       PRES   REMARKS
GRAND FORKS    PTCLDY    54  51  90 W5        30.08S
6HR MIN TEMP:  51; 6HR MAX TEMP:  59;

GRAND FRKS AFB CLEAR     55  53  93 NW6       30.09S
GRAND FRKS NWS   N/A     54 N/A N/A MISG        N/A
DEVILS LAKE    PTCLDY    56  54  93 SW3       30.11S
6HR MIN TEMP:  53; 6HR MAX TEMP:  61;

FARGO          CLEAR     59  55  87 N3        30.08S
WAHPETON ARPT  SUNNY     59  55  88 CALM      30.08S
$$

 ***** WEATHER ACROSS CENTRAL AND WESTERN NORTH DAKOTA  *****

CITY           SKY/WX    TMP DP  RH WIND       PRES   REMARKS
BISMARCK       CLOUDY    62  61  96 CALM      30.09S
6HR MIN TEMP:  62; 6HR MAX TEMP:  66;

MINOT          MOCLDY    57  53  86 CALM      30.10S
6HR MIN TEMP:  55; 6HR MAX TEMP:  64;

JAMESTOWN      CLOUDY    61  59  93 CALM      30.10S
6HR MIN TEMP:  60; 6HR MAX TEMP:  63;

MINOT AFB      CLEAR     50  47  90 W2        30.09S
GARRISON         N/A     62  60  93 CALM      30.09S
WILLISTON      CLEAR     51  49  92 CALM      30.10S
6HR MIN TEMP:  50; 6HR MAX TEMP:  58;

DICKINSON      CLOUDY    56  55  97 CALM      30.10S
6HR MIN TEMP:  53; 6HR MAX TEMP:  59;

HETTINGER      FOG       51  49  92 CALM      30.13S VSB<1/4
6HR MIN TEMP:  50; 6HR MAX TEMP:  56;

$$

 *****  OTHER AIRPORT OBSERVATIONS IN OUR AREA  *****

CITY           SKY/WX    TMP DP  RH WIND       PRES   REMARKS
WALHALLA       NOT AVBL
GRAFTON AIRPOR FAIR      55  55 100 NW5       30.11R
VALLEY CITY AR CLOUDY    61  61 100 CALM      30.12S
CANDO          NOT AVBL
CAVALIER APRT  FAIR      54  54 100 CALM      30.09S
GWINNER        FAIR      59  57  94 N7        30.10S
SHEYENNE NWR     N/A     55  54  95 NW2       29.95S
ROLLA          FAIR      54  54 100 SW5       30.13S
 ***** THE ABOVE OBSERVATIONS ARE NON NWS ARE NOT QUALITY
       CONTROLLED AND MAY MIS-REPORT RAIN FOR SNOW...
$$

  *****  WEATHER ACROSS NORTHERN MINNESOTA  *****

CITY           SKY/WX    TMP DP  RH WIND       PRES   REMARKS
FLAG ISLAND    CLEAR     66  57  72 NE3       30.08F
WARROAD        CLEAR     55  52  88 CALM      30.10S
ROSEAU         CLEAR     54  48  82 CALM      30.10S
HALLOCK        CLEAR     54  52  94 CALM      30.08S
THF RVR FALLS  CLEAR     56  53  90 CALM      30.10S
6HR MIN TEMP:  53; 6HR MAX TEMP:  58;

BAUDETTE       CLEAR     55  52  89 CALM      30.09S
6HR MIN TEMP:  50; 6HR MAX TEMP:  55;

WASKISH        CLEAR     55  54  94 CALM      30.09S FOG
CROOKSTON      FOG       52  50  93 CALM      30.10S VSB 1/4
STEPHEN NDAWN    N/A     55  55 100 CALM        N/A
GREENBUSH NDAW   N/A     55  55 100 CALM        N/A
$$
  *****  WEATHER ACROSS CENTRAL AND WEST MINNESOTA  *****

CITY           SKY/WX    TMP DP  RH WIND       PRES   REMARKS
FOSSTON        PTCLDY    52  48  87 CALM      30.10S
BEMIDJI        CLEAR     52  52 100 CALM      30.10S
PARK RAPIDS    MOCLDY    58  56  93 CALM      30.10S
6HR MIN TEMP:  55; 6HR MAX TEMP:  62;

ELBOW LAKE     FAIR      62  62  98 CALM      30.10R
WADENA         NOT AVBL
DETROIT LAKES  CLEAR     61  59  94 CALM      30.11S
MOORHEAD       CLEAR     57  55  94 CALM      30.09S
FERGUS FALLS   MOCLDY    61  61 100 SE3       30.10S
MORRIS MN      CLEAR     59  57  94 CALM      30.09R
STAPLES        CLEAR     55  54  94 CALM      30.10S
$$
  *****  WEATHER ELSEWHERE ACROSS MINNESOTA  *****

CITY           SKY/WX    TMP DP  RH WIND       PRES   REMARKS
DULUTH         MOSUNNY   55  52  89 NE3       30.12S
6HR MIN TEMP:  49; 6HR MAX TEMP:  55;

INTRNTL FALLS  SUNNY     54  53  97 SE3       30.10F
6HR MIN TEMP:  47; 6HR MAX TEMP:  57;

ELY            CLOUDY    50  48  93 CALM      30.14R
CLOQUET        MOSUNNY   52  48  87 CALM      30.12S
WHEATON        NOT AVBL
BRAINERD       CLEAR     59  56  89 E3        30.11S
6HR MIN TEMP:  57; 6HR MAX TEMP:  62;

HIBBING        SUNNY     48  48 100 CALM      30.13R
6HR MIN TEMP:  44; 6HR MAX TEMP:  49;

ALEXANDRIA     CLEAR     59  57  93 NW3       30.11R
6HR MIN TEMP:  56; 6HR MAX TEMP:  63;

SAINT CLOUD    CLEAR     56  54  93 CALM      30.09R
6HR MIN TEMP:  52; 6HR MAX TEMP:  60;

MINNEAPOLIS    CLOUDY    62  56  80 NE8       30.06S
6HR MIN TEMP:  61; 6HR MAX TEMP:  67;

$$

  *****  WEATHER ACROSS SOUTH DAKOTA  *****

CITY           SKY/WX    TMP DP  RH WIND       PRES   REMARKS
SIOUX FALLS    PTCLDY    57  54  89 CALM      30.08R
6HR MIN TEMP:  55; 6HR MAX TEMP:  60;

BROOKINGS      CLEAR     55  53  93 NE3       30.09R
WATERTOWN      CLEAR     62  57  83 CALM      30.09S
6HR MIN TEMP:  59; 6HR MAX TEMP:  68; 6HR PCP: TRACE;

HURON          CLEAR     57  54  89 CALM      30.09R
6HR MIN TEMP:  55; 6HR MAX TEMP:  66;

SISSETON         N/A     59  58  96 CALM      30.08R
ABERDEEN       MOCLDY    63  60  90 CALM      30.09S
6HR MIN TEMP:  62; 6HR MAX TEMP:  67;

MITCHELL       CLOUDY    58  56  93 NE3       30.09R
PIERRE         MOCLDY    62  61  96 SW5       30.08R
6HR MIN TEMP:  60; 6HR MAX TEMP:  65;

MOBRIDGE       CLOUDY    67  59  75 E6        30.06S
RAPID CITY     CLEAR     52  52 100 CALM      30.13S FOG
6HR MIN TEMP:  52; 6HR MAX TEMP:  58;

$$

  *****  SOME WEATHER IN NEARBY STATES *****

CITY           SKY/WX    TMP DP  RH WIND       PRES   REMARKS
GLASGOW MT     PTCLDY    58  55  90 E8        30.06S
6HR MIN TEMP:  57; 6HR MAX TEMP:  63;

GREAT FALLS MT CLEAR     57  53  86 S8        30.15R
6HR MIN TEMP:  56; 6HR MAX TEMP:  71;

CHEYENNE WY    CLEAR     57  56  96 SW9       30.24S
6HR MIN TEMP:  57; 6HR MAX TEMP:  61;

SCOTTSBLUFF NE CLEAR     58  56  93 CALM      30.15F
6HR MIN TEMP:  58; 6HR MAX TEMP:  64;

OMAHA NE       CLOUDY    67  63  87 N8        30.02R
6HR MIN TEMP:  67; 6HR MAX TEMP:  70; 6HR PCP: TRACE;

DES MOINES IA  CLOUDY    66  61  84 N6        29.98R
6HR MIN TEMP:  65; 6HR MAX TEMP:  70;

DAVENPORT IA   CLOUDY    69  68  96 NE6       29.92S FOG
6HR MIN TEMP:  66; 6HR MAX TEMP:  69;

CHICAGO IL     PTSUNNY   71  68  90 N6        29.92R
6HR MIN TEMP:  70; 6HR MAX TEMP:  71;

EAU CLAIRE WI  PTSUNNY   61  55  81 N6        30.05R
6HR MIN TEMP:  61; 6HR MAX TEMP:  65;

LA CROSSE WI   CLOUDY    65  58  78 N7        30.00R
6HR MIN TEMP:  65; 6HR MAX TEMP:  66;

$$

  *****  SOME NATIONAL WEATHER *****

CITY           SKY/WX    TMP DP  RH WIND       PRES   REMARKS
LA GUARDIA NY  LGT RAIN  72  68  87 NE13      29.84R FOG
6HR MIN TEMP:  71; 6HR MAX TEMP:  78; 6HR PCP:  0.88;

RALEIGH NC     MOSUNNY   79  71  76 W7        29.89R
6HR MIN TEMP:  75; 6HR MAX TEMP:  79;

ATLANTA GA     MOSUNNY   74  72  93 W6        30.05R
6HR MIN TEMP:  73; 6HR MAX TEMP:  76;

NEW ORLEANS LA PTCLDY    80  76  87 CALM      30.03R
6HR MIN TEMP:  80; 6HR MAX TEMP:  83;

OKLAHOMA CITY  TSTM      68  66  93 N31G52    30.08R FOG
6HR MIN TEMP:  70; 6HR MAX TEMP:  80; 6HR PCP: TRACE;

ALBUQUERQUE NM PTCLDY    71  48  43 SE7       30.19R
6HR MIN TEMP:  71; 6HR MAX TEMP:  79;

SALT LAKE CITY PTCLDY    73  46  38 SE8       30.03R
6HR MIN TEMP:  73; 6HR MAX TEMP:  82;

LOS ANGELES CA PTCLDY    70  65  84 W3        29.82S
6HR MIN TEMP:  69; 6HR MC1F1C2F2C3F3C4F4C5F5C6F6C7F7C8F8C9F9CaFaCbFbCcFcCd!



USA.gov is the U.S. government's official web portal to all federal, state and local government web resources and services.